Terug naar catalogus

DELTA 1 DEB

ActiefLEO
NORAD 10837·DEBRIS·🇺🇸 United States

Gelanceerd Jul 29, 1976 vanaf Vandenberg Space Force Base

Loading…

Volgende Passages (komende 24 uur)

TLE

VersSource: Space-Track

Epoch: Sep 14, 2026, 06:13 UTC

1 10837U 76077CH  26257.25945341 -.00000014  00000-0  30724-3 0  9996
2 10837 102.3226 180.5020 0200903  27.8408 125.6123 12.04541017204344

Volg DELTA 1 DEB in realtime met AllMySat

Download on the App Store